This is the latest recevied weather packets stored in our database for station/object KJ7IVE-13. If no packets are shown the sender has not sent any weather packets the latest 10 day(s).
| Time | Temp. | Humidity | Pressure | Rain* | Wind** | Luminosity | Snow |
|---|---|---|---|---|---|---|---|
| 1777714215 | 8.89° C | 10% | 1021.9 hPa | 0 mm | - | 0 W/m² | - |
| 1777713912 | 8.89° C | 10% | 1021.7 hPa | 0 mm | - | 0 W/m² | - |
| 1777713610 | 8.33° C | 10% | 1021.6 hPa | 0 mm | - | 0 W/m² | - |
| 1777713306 | 8.89° C | 10% | 1021.6 hPa | 0 mm | - | 0 W/m² | - |
| 1777713004 | 9.44° C | 10% | 1021.7 hPa | 0 mm | - | 0 W/m² | - |
| 1777712700 | 9.44° C | 10% | 1021.6 hPa | 0 mm | - | 0 W/m² | - |
| 1777712396 | 9.44° C | 10% | 1021.8 hPa | 0 mm | - | 0 W/m² | - |
| 1777712092 | 9.44° C | 10% | 1021.7 hPa | 0 mm | - | 0 W/m² | - |
| 1777711790 | 9.44° C | 10% | 1021.6 hPa | 0 mm | - | 0 W/m² | - |
| 1777711488 | 8.89° C | 10% | 1021.7 hPa | 0 mm | - | 0 W/m² | - |
| 1777711182 | 7.22° C | 10% | 1021.9 hPa | 0 mm | - | 0 W/m² | - |
| 1777710879 | 7.78° C | 10% | 1021.7 hPa | 0 mm | - | 0 W/m² | - |
| 1777710576 | 7.78° C | 10% | 1021.6 hPa | 0 mm | - | 0 W/m² | - |
| 1777710274 | 8.89° C | 10% | 1021.4 hPa | 0 mm | - | 0 W/m² | - |
| 1777709970 | 8.33° C | 10% | 1021.4 hPa | 0 mm | - | 0 W/m² | - |
| 1777709668 | 8.33° C | 10% | 1021.5 hPa | 0 mm | - | 0 W/m² | - |
| 1777709365 | 8.89° C | 10% | 1021.5 hPa | 0 mm | - | 0 W/m² | - |
| 1777709062 | 10.56° C | 10% | 1021.6 hPa | 0 mm | - | 0 W/m² | - |
| 1777708759 | 10° C | 10% | 1021.5 hPa | 0 mm | - | 0 W/m² | - |
| 1777708457 | 10.56° C | 10% | 1021.5 hPa | 0 mm | - | 0 W/m² | - |
| 1777708155 | 10° C | 10% | 1021.5 hPa | 0 mm | - | 0 W/m² | - |
| 1777707853 | 10.56° C | 10% | 1021.4 hPa | 0 mm | - | 0 W/m² | - |
| 1777707548 | 10.56° C | 10% | 1021.4 hPa | 0 mm | - | 0 W/m² | - |
| 1777707244 | 10° C | 10% | 1021.5 hPa | 0 mm | - | 0 W/m² | - |
| 1777706943 | 10.56° C | 10% | 1021.4 hPa | 0 mm | - | 0 W/m² | - |
* Rain latest hour (hover to see other rain measurements)
** Current wind speed in m/s (hover to see current wind gust speed)